Weather History for Ainsworth, NE

Change the Weather History Date:

Thursday, December 29, 2011

  Actual Average Record
Temperature  
Mean Temperature 46 °F -  
Max Temperature 59 °F 34 °F 60 °F (1999)
Min Temperature 32 °F 14 °F -4 °F (2014)
Degree Days  
Heating Degree Days 20    
Moisture  
Dew Point 33 °F    
Average Humidity 68    
Maximum Humidity 93    
Minimum Humidity 36    
Precipitation  
Precipitation 0.05 in - - ()
Sea Level Pressure  
Sea Level Pressure 29.61 in    
Wind  
Wind Speed 13 mph (West)    
Max Wind Speed 24 mph    
Max Gust Speed 33 mph    
Visibility 10 miles    
Events Rain    
Averages and records for this station are not official NWS values.
T = Trace of Precipitation, MM = Missing Value Source: NWS Daily Summary

Daily Weather History Graph

Daily Weather History Graph

Search for Another Location

Airport:

Trip Planner

Search our weather history database for the weather conditions in past years. The results will help you decide how hot, cold, wet, or windy it might be!

Date:

Astronomy

Dec. 29, 2011 Rise Set
Actual Time 8:09 AM CST 5:14 PM CST
Civil Twilight 7:37 AM CST 5:46 PM CST
Nautical Twilight 7:01 AM CST 6:22 PM CST
Astronomical Twilight 6:27 AM CST 6:56 PM CST
Moon 10:56 AM CST (12/29) 11:00 PM CST (12/29)
Length of Visible Light 10h 09m
Length of Day
9h 05m
Waxing Crescent, 27% of the Moon is Illuminated
Dec 29
Waxing Crescent
Jan 1
First Quarter
Jan 9
Full
Jan 16
Last Quarter
Jan 23
New

Hourly Weather History & Observations

Time (CST) Temp. Windchill Dew Point Humidity Pressure Visibility Wind Dir Wind Speed Gust Speed Precip Events Conditions
12:15 AM 42.8 °F 35.4 °F 28.4 °F 57% 29.74 in 10.0 mi West 15.0 mph - N/A   Clear
12:35 AM 42.8 °F 36.2 °F 28.4 °F 57% 29.74 in 10.0 mi West 12.7 mph 19.6 mph N/A   Clear
12:55 AM 41.0 °F 33.1 °F 28.4 °F 61% 29.73 in 10.0 mi West 15.0 mph 20.7 mph N/A   Clear
1:15 AM 41.0 °F 33.5 °F 28.4 °F 61% 29.74 in 10.0 mi West 13.8 mph - N/A   Clear
1:35 AM 41.0 °F 33.5 °F 28.4 °F 61% 29.73 in 10.0 mi West 13.8 mph - N/A   Clear
1:55 AM 41.0 °F 33.5 °F 28.4 °F 61% 29.73 in 10.0 mi West 13.8 mph 19.6 mph N/A   Clear
2:15 AM 41.0 °F 33.5 °F 30.2 °F 65% 29.73 in 10.0 mi West 13.8 mph - N/A   Clear
2:35 AM 41.0 °F 33.9 °F 30.2 °F 65% 29.73 in 10.0 mi West 12.7 mph - N/A   Clear
2:55 AM 41.0 °F 33.9 °F 30.2 °F 65% 29.74 in 10.0 mi West 12.7 mph - N/A   Clear
3:15 AM 41.0 °F 33.9 °F 30.2 °F 65% 29.74 in 10.0 mi West 12.7 mph - N/A   Clear
7:35 AM 32.0 °F 26.4 °F 28.4 °F 87% 29.69 in 10.0 mi SW 5.8 mph - N/A   Clear
7:55 AM 32.0 °F 26.4 °F 28.4 °F 87% 29.68 in 10.0 mi SW 5.8 mph - N/A   Clear
8:35 AM 32.0 °F 25.6 °F 30.2 °F 93% 29.66 in 10.0 mi SW 6.9 mph - N/A   Clear
8:55 AM 35.6 °F 30.7 °F 30.2 °F 81% 29.66 in 10.0 mi South 5.8 mph - N/A   Clear
9:15 AM 35.6 °F 29.9 °F 32.0 °F 87% 29.65 in 10.0 mi SSW 6.9 mph - N/A   Clear
9:35 AM 41.0 °F 35.8 °F 32.0 °F 70% 29.64 in 10.0 mi SW 8.1 mph - N/A   Clear
9:55 AM 42.8 °F 38.6 °F 32.0 °F 66% 29.64 in 10.0 mi SW 6.9 mph - N/A   Clear
10:15 AM 42.8 °F 41.1 °F 32.0 °F 66% 29.63 in 10.0 mi SW 3.5 mph - N/A   Clear
10:55 AM 44.6 °F 41.4 °F 32.0 °F 61% 29.61 in 10.0 mi South 5.8 mph - N/A   Mostly Cloudy
11:15 AM 44.6 °F 40.7 °F 32.0 °F 61% 29.59 in 10.0 mi South 6.9 mph - N/A   Mostly Cloudy
11:35 AM 46.4 °F 42.4 °F 32.0 °F 57% 29.57 in 10.0 mi South 8.1 mph - N/A   Mostly Cloudy
11:55 AM 46.4 °F 42.9 °F 32.0 °F 57% 29.56 in 10.0 mi SSW 6.9 mph - N/A   Scattered Clouds
12:15 PM 50.0 °F - 32.0 °F 50% 29.54 in 10.0 mi SSW 9.2 mph - N/A   Clear
12:35 PM 51.8 °F - 32.0 °F 47% 29.52 in 10.0 mi SSW 9.2 mph - N/A   Scattered Clouds
12:55 PM 51.8 °F - 32.0 °F 47% 29.50 in 10.0 mi SW 10.4 mph - N/A   Mostly Cloudy
1:15 PM 53.6 °F - 32.0 °F 44% 29.48 in 10.0 mi SW 8.1 mph - N/A   Scattered Clouds
1:35 PM 55.4 °F - 32.0 °F 41% 29.46 in 10.0 mi SW 12.7 mph - N/A   Scattered Clouds
1:55 PM 57.2 °F - 32.0 °F 38% 29.45 in 10.0 mi WSW 12.7 mph - N/A   Mostly Cloudy
2:15 PM 59.0 °F - 32.0 °F 36% 29.44 in 10.0 mi West 15.0 mph 21.9 mph N/A   Overcast
2:35 PM 57.2 °F - 32.0 °F 38% 29.44 in 10.0 mi West 15.0 mph 24.2 mph N/A   Overcast
3:15 PM 55.4 °F - 32.0 °F 41% 29.46 in 10.0 mi West 13.8 mph - N/A   Overcast
3:35 PM 55.4 °F - 32.0 °F 41% 29.46 in 10.0 mi West 10.4 mph - N/A   Overcast
3:55 PM 53.6 °F - 33.8 °F 47% 29.47 in 10.0 mi NW 18.4 mph 28.8 mph N/A Rain Light Rain
4:15 PM 53.6 °F - 33.8 °F 47% 29.48 in 10.0 mi NW 17.3 mph 23.0 mph N/A   Overcast
4:35 PM 51.8 °F - 37.4 °F 58% 29.51 in 10.0 mi NW 21.9 mph 28.8 mph N/A Rain Rain
4:55 PM 46.4 °F 38.5 °F 41.0 °F 81% 29.53 in 10.0 mi NW 21.9 mph 31.1 mph N/A   Drizzle
5:15 PM 46.4 °F 39.0 °F 41.0 °F 81% 29.55 in 10.0 mi NW 19.6 mph 29.9 mph N/A   Drizzle
5:35 PM 44.6 °F 36.1 °F 41.0 °F 87% 29.55 in 10.0 mi NW 21.9 mph 27.6 mph N/A Rain Light Rain
5:55 PM 42.8 °F 34.3 °F 39.2 °F 87% 29.57 in 10.0 mi WNW 19.6 mph 27.6 mph 0.01 in Rain Light Rain
6:15 PM 42.8 °F 33.8 °F 39.2 °F 87% 29.58 in 10.0 mi WNW 21.9 mph 26.5 mph 0.02 in Rain Rain
6:35 PM 42.8 °F 33.3 °F 39.2 °F 87% 29.59 in 10.0 mi NW 24.2 mph 31.1 mph 0.03 in Rain Rain
6:55 PM 42.8 °F 34.3 °F 39.2 °F 87% 29.60 in 10.0 mi NW 19.6 mph 29.9 mph 0.04 in Rain Light Rain
7:15 PM 42.8 °F 33.8 °F 37.4 °F 81% 29.61 in 10.0 mi NW 21.9 mph 31.1 mph N/A Rain Rain
7:35 PM 42.8 °F 33.5 °F 37.4 °F 81% 29.62 in 10.0 mi NW 23.0 mph 33.4 mph N/A   Drizzle
7:55 PM 41.0 °F 33.5 °F 37.4 °F 87% 29.63 in 10.0 mi WNW 13.8 mph - N/A   Light Drizzle
8:15 PM 41.0 °F 33.5 °F 37.4 °F 87% 29.63 in 10.0 mi WNW 13.8 mph 19.6 mph N/A   Overcast
8:35 PM 41.0 °F 33.9 °F 35.6 °F 81% 29.62 in 10.0 mi WNW 12.7 mph 19.6 mph N/A   Mostly Cloudy
8:55 PM 39.2 °F 31.6 °F 35.6 °F 87% 29.62 in 10.0 mi WNW 12.7 mph - N/A   Clear
9:15 PM 39.2 °F 31.2 °F 35.6 °F 87% 29.64 in 10.0 mi West 13.8 mph - N/A   Scattered Clouds
9:35 PM 41.0 °F 33.1 °F 35.6 °F 81% 29.65 in 10.0 mi WNW 15.0 mph - N/A   Clear
9:55 PM 41.0 °F 33.5 °F 33.8 °F 76% 29.65 in 10.0 mi WNW 13.8 mph - N/A   Clear
10:15 PM 39.2 °F 31.6 °F 33.8 °F 81% 29.67 in 10.0 mi WNW 12.7 mph - N/A   Clear
10:35 PM 41.0 °F 32.5 °F 32.0 °F 70% 29.67 in 10.0 mi WNW 17.3 mph 27.6 mph N/A   Clear
10:55 PM 39.2 °F 30.5 °F 32.0 °F 75% 29.68 in 10.0 mi WNW 16.1 mph 25.3 mph N/A   Clear
11:15 PM 37.4 °F 28.5 °F 32.0 °F 81% 29.69 in 10.0 mi WNW 15.0 mph 20.7 mph N/A   Clear
11:35 PM 37.4 °F 28.5 °F 32.0 °F 81% 29.69 in 10.0 mi WNW 15.0 mph 19.6 mph N/A   Clear
11:55 PM 37.4 °F 28.5 °F 30.2 °F 75% 29.69 in 10.0 mi WNW 15.0 mph - N/A   Clear